Orbital Elements at Epoch 2459000.5 (2020-May-31.0) TDB
Reference: JPL 14 (heliocentric ecliptic J2000)
Element | Value | Uncertainty (1-sigma) | Units |
e | .08303211429374086 | 5.2621e-08 | |
a | 2.861765007026812 | 2.5602e-08 | au |
q | 2.624146607881533 | 1.4905e-07 | au |
i | 3.226002238799959 | 5.8386e-06 | deg |
node | 81.23559461191678 | 0.00010422 | deg |
peri | 281.1666092327232 | 0.00011073 | deg |
M | 167.3668601846673 | 3.789e-05 | deg |
tp | 2458178.415711195996 (2018-Feb-28.91571120) | 0.00018299 | TDB |
period | 1768.273262955995 4.84 | 2.3729e-05 6.497e-08 | d yr |
n | .2035884427716753 | 2.732e-09 | deg/d |
Q | 3.09938340617209 | 2.7728e-08 | au |
|
| | Orbit Determination Parameters
Additional Information
|